Obecuri, Spain

3:28 AM CEST on July 26, 2017 (GMT +0200)
Obecuri

Weather History for 08084 - August, 2013

Change the Weather History Date:

Sunday, August 18, 2013

  Actual Average Record
Temperature  
Mean Temperature 76 °F -  
Max Temperature 92 °F - - ()
Min Temperature 60 °F - - ()
Cooling Degree Days 11    
Growing Degree Days 26 (Base 50)    
Moisture  
Dew Point 61 °F    
Average Humidity 63    
Maximum Humidity 94    
Minimum Humidity 17    
Precipitation  
Precipitation 0.00 in 0.03 in - ()
Sea Level Pressure  
Sea Level Pressure 30.05 in    
Wind  
Wind Speed 2 mph ()    
Max Wind Speed 8 mph    
Max Gust Speed -    
Visibility 12.2 miles    
Events      
T = Trace of Precipitation, MM = Missing Value Source: Averaged Metar Reports

Daily Weather History Graph

Daily Weather History Graph

Search for Another Location

Airport or City:

Trip Planner

Search our weather history database for the weather conditions in past years. The results will help you decide how hot, cold, wet, or windy it might be!

Date:

Astronomy

Aug. 18, 2013 Rise Set
Actual Time 7:19 AM CEST 9:06 PM CEST
Civil Twilight 6:49 AM CEST 9:35 PM CEST
Nautical Twilight 6:12 AM CEST 10:12 PM CEST
Astronomical Twilight 5:33 AM CEST 10:51 PM CEST
Moon 7:01 PM CEST (8/18) 4:10 AM CEST (8/18)
Length of Visible Light 14h 46m
Length of Day
13h 46m
Waxing Gibbous, 90% of the Moon is Illuminated
Aug 18
Waxing Gibbous
Aug 21
Full
Aug 28
Last Quarter
Sep 5
New
Sep 12
First Quarter

Hourly Weather History & Observations

Time (CEST) Temp. Heat Index Dew Point Humidity Pressure Visibility Wind Dir Wind Speed Gust Speed Precip Events Conditions
12:00 AM 71.6 °F - 64.4 °F 78% 30.09 in - Calm Calm - N/A   Clear
1:00 AM 69.8 °F - 62.6 °F 78% 30.09 in - Calm Calm - N/A   Clear
2:00 AM 66 °F - 60 °F 74% 30.06 in 19 mi West 2.3 mph - -   Clear
2:00 AM 68.0 °F - 64.4 °F 88% 30.09 in - Variable 1.2 mph - N/A   Clear
3:00 AM 66.2 °F - 62.6 °F 88% 30.06 in - Calm Calm - N/A   Clear
4:00 AM 66.2 °F - 62.6 °F 88% 30.06 in - Variable 1.2 mph - N/A   Clear
5:00 AM 64.4 °F - 62.6 °F 94% 30.06 in - Calm Calm - N/A   Clear
6:00 AM 64.4 °F - 62.6 °F 94% 30.06 in - Calm Calm - N/A   Clear
7:00 AM 62.6 °F - 60.8 °F 94% 30.09 in - Variable 1.2 mph - N/A   Clear
8:00 AM 62 °F - 57 °F 79% 30.09 in 16 mi WSW 1.2 mph - -  
8:00 AM 62.6 °F - 60.8 °F 94% 30.09 in - Variable 1.2 mph - N/A   Clear
9:00 AM 66.2 °F - 62.6 °F 88% 30.09 in - Variable 1.2 mph - N/A   Clear
10:00 AM 71.6 °F - 60.8 °F 69% 30.09 in - Variable 1.2 mph - N/A   Clear
11:00 AM 77.0 °F - 62.6 °F 61% 30.09 in - Variable 2.3 mph - N/A   Clear
12:00 PM 80.6 °F 82.3 °F 64.4 °F 58% 30.09 in - East 3.5 mph - N/A   Clear
1:00 PM 82.4 °F 83.9 °F 64.4 °F 54% 30.09 in - Variable 4.6 mph - N/A   Clear
2:00 PM 84 °F - 56 °F 29% 30.01 in 19 mi East 5.8 mph - -  
2:00 PM 86.0 °F 86.6 °F 62.6 °F 45% 30.06 in - East 5.8 mph - N/A   Clear
3:00 PM 87.8 °F 88.5 °F 62.6 °F 43% 30.04 in - East 5.8 mph - N/A   Clear
4:00 PM 91.4 °F 91.4 °F 60.8 °F 36% 30.04 in - ESE 6.9 mph - N/A   Clear
5:00 PM 91.4 °F 90.7 °F 59.0 °F 34% 30.01 in 6.2 mi ESE 8.1 mph - N/A   Partly Cloudy
6:00 PM 93.2 °F 91.9 °F 57.2 °F 30% 30.01 in 6.2 mi ESE 4.6 mph - N/A   Partly Cloudy
7:00 PM 93.2 °F 91.9 °F 57.2 °F 30% 30.01 in 6.2 mi East 4.6 mph - N/A   Partly Cloudy
8:00 PM 90 °F - 51 °F 17% 29.92 in 19 mi ESE 6.9 mph - -   Scattered Clouds
8:00 PM 89.6 °F 88.9 °F 59.0 °F 36% 30.01 in 6.2 mi East 4.6 mph - N/A   Partly Cloudy
9:00 PM 84.2 °F 85.0 °F 62.6 °F 48% 30.01 in - Variable 1.2 mph - N/A   Clear
10:00 PM 78.8 °F - 64.4 °F 61% 30.04 in - Variable 1.2 mph - N/A   Clear
11:00 PM 77.0 °F - 66.2 °F 69% 30.04 in - Calm Calm - N/A   Clear